Regional Weather Roundup
Issued by NWS

Home | Current Version | Previous Version | Text Only | Print | Product List | Glossary Off
Versions: 1 2 3 4 5 6 7 8 9 10 11 12 13 14 15 16 17 18 19 20 21 22 23 24 25 26 27 28 29 30 31 32 33 34 35 36 37 38 39 40 41 42 43 44 45 46 47 48 49 50

000
ASUS43 KBIS 231431
RWRND
NORTH DAKOTA REGIONAL WEATHER ROUNDUP
NATIONAL WEATHER SERVICE EASTERN NORTH DAKOTA/GRAND FORKS ND
800 AM CST FRI FEB 23 2018

  NOTE: "FAIR" INDICATES FEW OR NO CLOUDS BELOW 12,000 FEET WITH NO
  SIGNIFICANT WEATHER AND/OR OBSTRUCTIONS TO VISIBILITY.

NDZ001>003-009>011-017-231500-
...NORTHWEST NORTH DAKOTA...

CITY           SKY/WX    TMP DP  RH WIND       PRES   REMARKS
WILLISTON      LGT SNOW  -5 -10  79 S7        30.24R WCI -19
MINOT          FAIR       0  -4  83 SW7       30.18F WCI -13
MINOT AFB      MOCLDY    -4  -9  77 W3        30.18R
$$

NDZ018>021-031>035-040>046-231500-
...SOUTHWEST NORTH DAKOTA...

CITY           SKY/WX    TMP DP  RH WIND       PRES   REMARKS
BISMARCK       FAIR       3  -2  79 W5        30.24R WCI  -6
DICKINSON      FAIR      -6 -12  75 W8        30.15S WCI -21
GARRISON         N/A     -3  -6  87 NW8       30.21R WCI -18
HETTINGER      FAIR     -12 -16  82 NW6       30.19S WCI -26
$$

NDZ004>008-012>016-024-026-027-054-231500-
...NORTHEAST NORTH DAKOTA...

CITY           SKY/WX    TMP DP  RH WIND       PRES   REMARKS
GRAND FORKS    CLOUDY    14   8  77 NW6       30.16R WCI   5
GRAND FORKS AF FAIR      13   5  70 NW6       30.16R WCI   4
DEVILS LAKE    FAIR      -1  -5  82 W9        30.18R WCI -16
$$

NDZ022-023-025-028>030-036>039-047>053-231500-
...SOUTHEAST NORTH DAKOTA...

CITY           SKY/WX    TMP DP  RH WIND       PRES   REMARKS
JAMESTOWN      CLOUDY     9   4  80 NW13      30.16R WCI  -7
FARGO          LGT SNOW  18  14  84 NW13      30.17R FOG     WCI   5
WAHPETON       FAIR      18  14  86 NW12      30.16S WCI   5
$$




USA.gov is the U.S. government's official web portal to all federal, state and local government web resources and services.